Waarnemingen

Advertentie
Mijn weer
Lycksele, Zweden (2261): temperatuur & dauwpunt: 18.01.2020 01:00:00 - 24.01.2020 01:00:00 (CET)Lycksele, Zweden (2261): windsnelheid & windstoten: 18.01.2020 01:00:00 - 24.01.2020 01:00:00 (CET)Lycksele, Zweden (2261): windrichting: 18.01.2020 01:00:00 - 24.01.2020 01:00:00 (CET)Lycksele, Zweden (2261): luchtdruk: 18.01.2020 01:00:00 - 24.01.2020 01:00:00 (CET)Lycksele, Zweden (2261): zicht: 18.01.2020 01:00:00 - 24.01.2020 01:00:00 (CET)Lycksele, Zweden (2261): neerslag: 18.01.2020 01:00:00 - 24.01.2020 01:00:00 (CET)
Datum & Tijd tt [°C] td [°C] ff [km/u] ff [kn] fx [km/u] fx [kn] dd ppp [hPa] vv [km] rr [mm]
24.01.2020 01:00:00 0,4 -3,1 5 3 15 8 W 996,8 50 0,0
24.01.2020 00:00:00 -0,2 -3,6 5 3 18 10 W 997,0 50 0,0
23.01.2020 23:00:00 1,7 -2,4 4 2 18 10 WNW 996,6 11 0,0
23.01.2020 22:00:00 2,0 -3,1 8 4 23 12 WNW 996,3 43 0,0
23.01.2020 21:00:00 -1,0 -2,4 4 2 16 8 WZW 996,2 40 0,0
23.01.2020 20:00:00 2,9 -1,6 10 5 32 18 WNW 995,6 38 0,0
23.01.2020 19:00:00 3,7 0,6 11 6 36 19 W 995,0 50 0,0
23.01.2020 18:00:00 3,5 1,2 6 4 17 9 WNW 995,2 50 0,0
23.01.2020 17:00:00 3,2 1,4 5 3 24 13 W 995,5 50 0,0
23.01.2020 16:00:00 2,3 1,0 4 2 13 7 WNW 996,3 50 0,0
23.01.2020 15:00:00 1,8 0,6 3 2 16 9 ZW 997,7 50 0,0
23.01.2020 14:00:00 1,8 0,3 6 3 18 10 W 999,2 50 0,0
23.01.2020 13:00:00 1,5 0,0 7 4 30 16 W 999,9 50 0,0
23.01.2020 12:00:00 0,9 -0,7 6 3 21 12 WZW 1001,1 50 0,0
23.01.2020 11:00:00 0,1 -1,3 7 4 20 11 ZZW 1002,5 50 0,1
23.01.2020 10:00:00 -0,8 -1,5 6 4 16 8 ZZO 1004,2 8 0,6
23.01.2020 09:00:00 -1,1 -1,7 9 5 17 9 ZZO 1005,9 1,7 0,6
23.01.2020 08:00:00 -1,2 -1,8 9 5 17 9 ZZO 1007,8 2,6 0,9
23.01.2020 07:00:00 -1,8 -2,4 7 4 10 5 ZO 1009,8 1,2 0,9
23.01.2020 06:00:00 -1,8 -2,6 3 2 10 5 ZZO 1011,4 2,3 0,5
23.01.2020 05:00:00 -2,3 -5,1 0 0 8 4 N 1012,9 39 0,0
23.01.2020 04:00:00 -1,5 -5,7 4 2 12 7 W 1014,4 50 0,0
23.01.2020 03:00:00 -1,5 -5,9 7 4 16 9 W 1015,5 50 0,0
23.01.2020 02:00:00 -3,7 -6,6 5 3 12 6 W 1016,9 50 0,0
23.01.2020 01:00:00 -5,0 -7,1 3 1 8 5 ZO 1017,7 50 0,0
23.01.2020 00:00:00 -2,8 -6,4 4 2 19 10 W 1017,8 50 0,0
22.01.2020 23:00:00 -4,5 -6,5 6 3 13 7 W 1018,2 50 0,0
22.01.2020 22:00:00 -7,7 -8,9 5 3 8 4 WNW 1018,7 50 0,0
22.01.2020 21:00:00 -6,7 -7,8 3 2 13 7 ZO 1018,7 50 0,0
22.01.2020 20:00:00 -4,1 -7,0 0 0 25 14 N 1018,1 50 0,0
22.01.2020 19:00:00 -1,1 -4,1 12 6 20 11 WNW 1017,5 50 0,0
22.01.2020 18:00:00 -0,1 -3,0 12 6 34 18 WNW 1017,3 34 0,0
22.01.2020 17:00:00 0,6 -3,9 20 11 38 20 NW 1016,5 50 0,0
22.01.2020 16:00:00 0,1 -2,3 16 9 27 14 WNW 1016,1 7 0,1
22.01.2020 15:00:00 -0,6 -2,8 5 3 16 8 N 1015,7 8 0,0
22.01.2020 14:00:00 0,6 -4,2 16 9 33 18 NNW 1015,2 7 0,0
22.01.2020 13:00:00 0,7 -5,7 16 9 38 20 WNW 1014,3 50 0,0
22.01.2020 12:00:00 0,0 -6,6 16 9 35 19 WNW 1013,6 50 0,0
22.01.2020 11:00:00 -0,5 -7,1 19 10 34 19 WNW 1013,0 50 0,0
22.01.2020 10:00:00 -2,9 -7,6 5 3 13 7 WNW 1012,0 50 0,0
22.01.2020 09:00:00 -2,3 -7,4 9 5 27 14 WNW 1010,7 50 0,0
22.01.2020 08:00:00 -1,4 -6,5 20 11 33 18 NW 1009,1 50 0,0
22.01.2020 07:00:00 -1,6 -5,6 19 10 31 17 NW 1007,2 50 0,0
22.01.2020 06:00:00 -0,6 -4,7 21 11 37 20 NW 1005,4 50 0,0
22.01.2020 05:00:00 -0,2 -4,8 18 10 31 17 WNW 1003,2 50 0,0
22.01.2020 04:00:00 -0,6 -5,2 19 10 29 16 WNW 1001,7 50 0,0
22.01.2020 03:00:00 -0,6 -6,0 15 8 29 16 WNW 1001,0 50 0,0
22.01.2020 02:00:00 -1,1 -6,6 16 9 36 19 WNW 1000,7 50 0,0
22.01.2020 01:00:00 -1,3 -7,0 16 8 32 17 WNW 1000,6 50 0,0
22.01.2020 00:00:00 -1,4 -7,3 12 7 34 18 WNW 1000,6 49 0,0
21.01.2020 23:00:00 -0,9 -6,7 18 10 32 17 WNW 1000,7 42 0,0
21.01.2020 22:00:00 -1,2 -6,7 13 7 26 14 WNW 1001,2 44 0,0
21.01.2020 21:00:00 -0,7 -4,9 11 6 35 19 WNW 1001,0 50 0,0
21.01.2020 20:00:00 -0,1 -3,3 17 9 31 17 W 1000,5 6 0,0
21.01.2020 19:00:00 0,0 -4,4 13 7 34 18 WNW 1000,6 50 0,0
21.01.2020 18:00:00 0,1 -4,3 18 10 39 21 W 1001,0 33 0,0
21.01.2020 17:00:00 0,5 -4,7 19 10 41 22 W 1001,3 50 0,0
21.01.2020 16:00:00 0,8 -4,8 26 14 56 30 WNW 1002,1 42 0,0
21.01.2020 15:00:00 0,9 -4,0 18 10 39 21 W 1002,7 50 0,0
21.01.2020 14:00:00 1,1 -4,7 17 9 45 24 W 1003,1 50 0,0
21.01.2020 13:00:00 1,5 -5,4 20 11 41 22 W 1003,0 46 0,0
21.01.2020 12:00:00 1,5 -4,6 24 13 42 23 WNW 1003,2 44 0,0
21.01.2020 11:00:00 1,3 -5,2 21 11 46 25 WNW 1003,2 42 0,0
21.01.2020 10:00:00 1,3 -6,1 19 10 39 21 WNW 1003,1 38 0,0
21.01.2020 09:00:00 0,7 -6,0 12 6 37 20 W 1003,2 40 0,0
21.01.2020 08:00:00 1,3 -6,5 23 13 43 23 WNW 1003,0 40 0,0
21.01.2020 07:00:00 1,5 -5,9 17 9 42 23 WNW 1003,3 50 0,0
21.01.2020 06:00:00 2,4 -4,1 27 14 50 27 NW 1002,7 50 0,0
21.01.2020 05:00:00 3,1 -3,7 23 12 47 26 WNW 1001,7 50 0,0
21.01.2020 04:00:00 3,6 -4,6 25 13 53 29 WNW 1000,6 50 0,0
21.01.2020 03:00:00 4,3 -4,4 26 14 54 29 WNW 1000,1 49 0,0
21.01.2020 02:00:00 5,4 -2,2 30 16 54 29 WNW 999,7 50 0,0
21.01.2020 01:00:00 5,6 -0,5 19 10 49 27 WNW 999,5 50 0,0
21.01.2020 00:00:00 6,3 0,0 26 14 50 27 WNW 999,0 50 0,0
20.01.2020 23:00:00 7,0 1,1 22 12 43 23 WNW 998,8 50 0,0
20.01.2020 22:00:00 7,4 2,9 18 10 45 25 WNW 998,7 50 0,0
20.01.2020 21:00:00 7,3 3,3 19 10 51 27 W 998,4 50 0,0
20.01.2020 20:00:00 7,3 3,3 15 8 41 22 W 998,9 50 0,0
20.01.2020 19:00:00 6,1 3,9 13 7 29 15 W 999,7 50 0,0
20.01.2020 18:00:00 5,8 3,6 10 5 26 14 WZW 1001,5 18 0,0
20.01.2020 17:00:00 4,9 2,9 7 4 22 12 Z 1003,0 50 0,0
20.01.2020 16:00:00 3,9 2,3 10 5 21 11 ZZO 1005,0 50 0,0
20.01.2020 15:00:00 4,2 2,2 9 5 20 11 Z 1006,8 50 0,0
20.01.2020 14:00:00 4,9 1,7 9 5 28 15 WZW 1007,7 50 0,0
20.01.2020 13:00:00 4,8 1,5 9 5 32 17 W 1008,3 50 0,0
20.01.2020 12:00:00 5,0 1,5 10 6 36 19 WNW 1009,0 50 0,0
20.01.2020 11:00:00 4,9 1,7 15 8 33 18 WNW 1009,4 50 0,0
20.01.2020 10:00:00 4,4 1,8 15 8 37 20 W 1009,7 50 0,0
20.01.2020 09:00:00 3,9 1,4 16 8 28 15 W 1009,5 50 0,0
20.01.2020 08:00:00 2,5 0,9 9 5 21 11 W 1009,6 50 0,0
20.01.2020 07:00:00 1,9 0,0 6 3 24 13 ZW 1010,9 50 0,0
20.01.2020 06:00:00 1,4 -0,4 10 5 33 18 ZW 1011,8 50 0,0
20.01.2020 05:00:00 1,4 -0,8 9 5 26 14 ZZW 1013,5 47 0,0
20.01.2020 04:00:00 1,0 -1,1 6 4 20 11 Z 1015,5 48 0,0
20.01.2020 03:00:00 0,5 -1,4 5 3 21 11 Z 1017,0 23 0,0
20.01.2020 02:00:00 0,1 -1,7 5 3 13 7 ZZW 1018,4 30 0,0
20.01.2020 01:00:00 -1,2 -2,6 3 2 9 5 ZW 1019,8 26 0,0
20.01.2020 00:00:00 -0,7 -2,7 6 4 15 8 WNW 1020,2 32 0,0
19.01.2020 23:00:00 -4,4 -4,7 5 3 10 6 NW 1020,8 39 0,0
19.01.2020 22:00:00 -1,1 -2,2 10 5 26 14 WNW 1021,1 50 0,0
19.01.2020 21:00:00 -9,3 -10,4 3 2 7 4 ZO 1021,4 37 0,0
19.01.2020 20:00:00 -9,3 -10,4 0 0 3 2 N 1021,4 23 0,0
19.01.2020 19:00:00 -9,7 -10,9 0 0 4 2 N 1021,2 24 0,0
19.01.2020 18:00:00 -8,3 -9,4 0 0 4 2 N 1021,5 23 0,0
19.01.2020 17:00:00 -7,4 -8,3 0 0 5 3 N 1020,8 28 0,0
19.01.2020 16:00:00 -7,7 -8,6 2 1 9 5 NNW 1019,9 23 0,0
19.01.2020 15:00:00 -8,0 -8,9 0 0 4 2 N 1019,1 29 0,0
19.01.2020 14:00:00 -8,1 -9,0 4 2 8 5 NW 1018,3 28 0,0
19.01.2020 13:00:00 -9,5 -10,6 0 0 4 2 N 1017,6 24 0,0
19.01.2020 12:00:00 -10,6 -11,9 0 0 4 2 N 1016,0 23 0,0
19.01.2020 11:00:00 -11,2 -12,5 0 0 4 2 N 1015,5 30 0,0
19.01.2020 10:00:00 -12,1 -13,5 0 0 2 1 N 1014,2 35 -
19.01.2020 09:00:00 -16,2 -18,1 0 0 5 3 N 1013,1 25 -
19.01.2020 08:00:00 -14,2 -15,7 0 0 5 3 N 1011,9 23 0,0
19.01.2020 07:00:00 -13,0 -14,7 0 0 8 4 N 1010,8 19 0,0
19.01.2020 06:00:00 -11,3 -12,5 3 1 9 5 W 1009,3 10 0,0
19.01.2020 05:00:00 -11,3 -12,6 0 0 4 2 N 1008,6 6 0,0
19.01.2020 04:00:00 -9,8 -11,0 4 2 8 4 WNW 1007,9 22 0,0
19.01.2020 03:00:00 -10,7 -12,0 0 0 7 4 N 1007,3 15 -
19.01.2020 02:00:00 -8,5 -9,4 0 0 12 6 N 1006,5 12 -
19.01.2020 01:00:00 -7,2 -8,6 7 4 15 8 NW 1006,0 24 0,0
19.01.2020 00:00:00 -6,1 -7,5 10 5 15 8 WNW 1005,4 9 0,0
18.01.2020 23:00:00 -6,3 -7,5 7 4 12 7 NW 1005,0 3,4 0,4
18.01.2020 22:00:00 -6,2 -7,1 5 3 8 4 NW 1004,8 1,8 0,6
18.01.2020 21:00:00 -6,2 -7,3 3 2 12 7 NW 1004,4 2,6 0,1
18.01.2020 20:00:00 -6,6 -7,7 6 4 11 6 NW 1004,1 8 0,1
18.01.2020 19:00:00 -7,0 -8,1 4 2 11 6 W 1003,9 10 0,0
18.01.2020 18:00:00 -6,8 -7,9 4 2 10 5 NW 1003,7 4,2 0,1
18.01.2020 17:00:00 -6,4 -7,3 8 4 12 6 NNW 1003,4 4,1 0,2
18.01.2020 16:00:00 -6,4 -7,5 9 5 12 7 NW 1003,5 2,3 0,3
18.01.2020 15:00:00 -6,4 -7,3 8 4 11 6 NNW 1003,4 1,7 0,6
18.01.2020 14:00:00 -6,4 -7,3 6 3 8 5 NNW 1003,5 1,4 0,5
18.01.2020 13:00:00 -6,4 -7,3 6 3 9 5 NNW 1003,6 2,1 0,6
18.01.2020 12:00:00 -6,5 -7,4 6 4 8 5 NNW 1003,9 1,2 0,8
18.01.2020 11:00:00 -6,5 -7,4 6 3 10 5 N 1004,1 1,2 0,5
18.01.2020 10:00:00 -6,6 -7,7 6 3 9 5 N 1004,6 2,5 0,3
18.01.2020 09:00:00 -6,6 -7,5 6 3 8 4 NNW 1004,9 1,5 0,8
18.01.2020 08:00:00 -6,7 -7,6 5 3 6 4 NNW 1005,2 1,1 0,7
18.01.2020 07:00:00 -6,6 -7,5 4 2 6 3 N 1005,5 1,7 0,5
18.01.2020 06:00:00 -6,6 -7,5 5 3 6 4 N 1006,0 1,8 0,6
18.01.2020 05:00:00 -6,4 -7,3 4 2 7 4 N 1006,8 1,4 0,7
18.01.2020 04:00:00 -6,1 -7,2 3 2 5 3 N 1007,2 2,3 0,6
18.01.2020 03:00:00 -6,0 -6,9 2 1 5 3 NO 1007,6 1,0 0,6
18.01.2020 02:00:00 -5,8 -7,2 4 2 7 4 ONO 1008,2 2,9 0,4
18.01.2020 01:00:00 -5,7 -6,9 3 2 9 5 O 1008,5 3,8 0,3

tt = temperatuur
td = dauwpunt
ff = windsnelheid
fx = windstoten
dd = windrichting
ppp = luchtdruk
vv = zicht
rr = neerslag

Weerstations in de omgeving